Tucson, AZ

5:13 PM MST on November 20, 2019 (GMT -0700)
Tucson International

Weather History for KTUS - October, 2019

Change the Weather History Date:

Monday, October 21, 2019

  Actual Average Record
Temperature  
Mean Temperature 68 °F 69 °F  
Max Temperature 84 °F 83 °F 96 °F (2003)
Min Temperature 51 °F 55 °F 33 °F (1920)
Degree Days  
Heating Degree Days 0 1  
Month to date heating degree days 0 7  
Since 1 July heating degree days 0 7  
Cooling Degree Days 3 5  
Month to date cooling degree days 215 172  
Year to date cooling degree days 3275 3079  
Growing Degree Days 18 (Base 50)    
Moisture  
Dew Point 20 °F    
Average Humidity 18    
Maximum Humidity 33    
Minimum Humidity 4    
Precipitation  
Precipitation 0.00 in 0.02 in 1.55 in (1978)
Month to date precipitation 0.01 0.66  
Year to date precipitation 10.10 9.86  
Sea Level Pressure  
Sea Level Pressure 29.98 in    
Wind  
Wind Speed 7 mph (South)    
Max Wind Speed 14 mph    
Max Gust Speed 20 mph    
Visibility 10 miles    
Events      
T = Trace of Precipitation, MM = Missing Value Source: NWS Daily Summary

Daily Weather History Graph

Daily Weather History Graph

Search for Another Location

Airport or City:

Astronomy

Oct. 21, 2019 Rise Set
Actual Time 6:31 AM MST 5:44 PM MST
Civil Twilight 6:06 AM MST 6:09 PM MST
Nautical Twilight 5:38 AM MST 6:38 PM MST
Astronomical Twilight 5:09 AM MST 7:06 PM MST
Moon No Moon Rise 1:40 PM MST
Length of Visible Light 12h 02m
Length of Day
11h 12m
Waning Gibbous, 47% of the Moon is Illuminated
Oct 21
Waning Gibbous
Oct 27
New
Nov 4
First Quarter
Nov 12
Full
Nov 19
Last Quarter

Hourly Weather History & Observations

Time (MST) Temp. Dew Point Humidity Pressure Visibility Wind Dir Wind Speed Gust Speed Precip Events Conditions
12:53 AM 55.9 °F 23.0 °F 28% 29.90 in 10.0 mi SE 10.4 mph - N/A   Clear
1:53 AM 55.0 °F 23.0 °F 29% 29.92 in 10.0 mi SSE 8.1 mph - N/A   Clear
2:53 AM 54.0 °F 23.0 °F 30% 29.91 in 10.0 mi South 5.8 mph - N/A   Clear
3:53 AM 52.0 °F 23.0 °F 32% 29.91 in 10.0 mi SSE 9.2 mph - N/A   Clear
4:53 AM 52.0 °F 23.0 °F 32% 29.92 in 10.0 mi SSE 10.4 mph - N/A   Clear
5:53 AM 52.0 °F 23.0 °F 32% 29.95 in 10.0 mi SSE 8.1 mph - N/A   Clear
6:53 AM 51.1 °F 23.0 °F 33% 29.97 in 10.0 mi SSE 9.2 mph - N/A   Clear
7:53 AM 55.9 °F 24.1 °F 29% 30.00 in 10.0 mi SSE 8.1 mph - N/A   Clear
8:53 AM 62.1 °F 24.1 °F 23% 30.01 in 10.0 mi South 8.1 mph - N/A   Clear
9:53 AM 68.0 °F 26.1 °F 21% 30.01 in 10.0 mi South 3.5 mph - N/A   Clear
10:53 AM 73.0 °F 21.0 °F 14% 30.00 in 10.0 mi Variable 3.5 mph - N/A   Clear
11:53 AM 78.1 °F 21.0 °F 12% 29.99 in 10.0 mi NE 3.5 mph - N/A   Clear
12:53 PM 81.0 °F 18.0 °F 10% 29.96 in 10.0 mi NNW 5.8 mph - N/A   Clear
1:41 PM 82.0 °F 17.1 °F 9% 30.04 in 10.0 mi North 10.4 mph - N/A   Clear
1:53 PM 82.0 °F 17.1 °F 9% 29.93 in 10.0 mi NW 9.2 mph - N/A   Clear
2:53 PM 82.9 °F 17.1 °F 9% 29.93 in 10.0 mi Variable 3.5 mph - N/A   Clear
3:53 PM 82.0 °F 17.1 °F 9% 29.94 in 10.0 mi West 10.4 mph - N/A   Clear
4:53 PM 81.0 °F 15.1 °F 8% 29.94 in 10.0 mi WNW 6.9 mph - N/A   Clear
5:53 PM 75.9 °F 16.0 °F 10% 29.96 in 10.0 mi NNW 8.1 mph - N/A   Clear
6:53 PM 72.0 °F 17.1 °F 12% 30.00 in 10.0 mi NNW 6.9 mph - N/A   Clear
7:53 PM 71.1 °F 15.1 °F 12% 30.01 in 10.0 mi West 5.8 mph - N/A   Clear
8:53 PM 66.0 °F 17.1 °F 15% 30.02 in 10.0 mi WSW 9.2 mph - N/A   Clear
9:53 PM 62.1 °F 19.0 °F 19% 30.04 in 10.0 mi WSW 4.6 mph - N/A   Clear
10:38 PM 61.0 °F 18.0 °F 19% 30.13 in 10.0 mi SE 5.8 mph - N/A   Clear
10:53 PM 59.0 °F 18.0 °F 20% 30.04 in 10.0 mi SSE 8.1 mph - N/A   Clear
11:53 PM 59.0 °F 19.0 °F 21% 30.04 in 10.0 mi East 3.5 mph - N/A   Clear